Find Starlink 36753

NORAD ID: 67694 Int'l Des: 2026-025 Owner: SPXS Country: US Constellation: starlink operational
LEOCIRCULARRETROGRADE

現在のビュー

3D地球を読み込み中...

Starlink 36753について

説明を読み込み中...

次回通過

Passes for default location (London). Set your location on the main map for personalized predictions.

高度履歴

Loading altitude history...

軌道要素

1 67694U 26025B 26146.31431026 .00028305 00000-0 87558-3 0 9990
2 67694 97.2829 257.8327 0001150 89.8134 270.3241 15.33453397 17915
Epoch: May 26, 2026 • Age: 12 hours

現在のステータス

高度 467.7 km
速度 7.63 km/s
衛星直下点 9.36°N, 93.56°W
打ち上げ日 Feb 7, 2026
運用期間 0.2 years
タイプ internet

技術仕様

分類 Payload
質量 575.00 kg
乾燥質量 530.00 kg
総質量 575.00 kg
長さ 0.30 m
直径 4.10 m
スパン 29.00 m
形状 Box + pan
製造者 SPXS
バスタイプ Starlink V2MO
フェーズステータス In Orbit
所有者/国 SPXS/US

Most Searched